This demonstration page uses our WeatherBlox Daily Observations layout. Learn more.

39.01783, -85.05884

Hourly Observations for February 1, 2020

Temp ( °F °C ) Dew Point ( °F °C ) Humidity (%) Winds ( mph kmh ) Pressure ( in mb ) Visibility ( mi km ) Precip ( " mm )
12:52 am 00:52 Cloudy with Mist and Fog 36 2.2 33 0.6 89 89 ENE 6 9 30.09 1019 3 4.82802 0 0
1:52 am 01:52 Cloudy with Mist and Fog 36 2.2 33 0.6 89 89 NE 6 9 30.08 1019 3 4.82802 0 0
2:14 am 02:14 Cloudy with Mist and Fog 36 2.2 33 0.6 89 89 NE 5 7 30.1 1019 3 4.82802 0 0
2:29 am 02:29 Cloudy with Mist and Fog 36 2.2 33 0.6 89 89 ENE 3 6 30.09 1019 3 4.82802 0 0
2:52 am 02:52 Cloudy with Mist and Fog 36 2.2 33 0.6 89 89 NE 3 6 30.07 1018 3 4.82802 0 0
3:52 am 03:52 Cloudy with Mist and Fog 36 2.2 33 0.6 89 89 ENE 3 6 30.04 1017 3 4.82802 0 0
4:52 am 04:52 Cloudy with Mist and Fog 36 2.2 33 0.6 89 89 NNE 5 7 30.03 1017 3 4.82802 0 0
5:52 am 05:52 Cloudy with Mist and Fog 36 2.2 33 0.6 89 89 Calm 30.02 1017 3 4.82802 0 0
6:52 am 06:52 Cloudy with Mist and Fog 36 2.2 33 0.6 89 89 Calm 30.02 1017 3 4.82802 0 0
7:52 am 07:52 Cloudy with Mist and Fog 36 2.2 33 0.6 89 89 Calm 30.02 1017 3 4.82802 0 0
7:56 am 07:56 Cloudy with Mist and Fog 36 2.2 33 0.6 89 89 Calm 30.05 1018 2 3.21868 0 0
8:39 am 08:39 Cloudy with Mist and Fog 36 2.2 33 0.6 89 89 Calm 30.04 1017 1.75 2.816345 0 0
8:52 am 08:52 Cloudy with Mist and Fog 36 2.2 33 0.6 89 89 Calm 30.01 1016 1.5 2.41401 0 0
9:20 am 09:20 Cloudy with Mist and Fog 36 2.2 34 1.1 93 93 Calm 30.04 1017 0.75 1.207005 0 0
9:52 am 09:52 Cloudy with Mist and Fog 36 2.2 34 1.1 93 93 WSW 3 6 30.01 1016 0.75 1.207005 0 0
10:52 am 10:52 Cloudy with Mist and Fog 37 2.8 35 1.7 93 93 SW 5 7 29.99 1016 1 1.60934 0 0
11:08 am 11:08 Cloudy with Mist and Fog 37 2.8 35 1.7 93 93 SSW 5 7 30.01 1016 1 1.60934 0 0
11:10 am 11:10 Cloudy with Mist and Fog 37 2.8 34 1.1 89 89 WSW 6 9 30.01 1016 2.5 4.02335 0 0
11:52 am 11:52 Cloudy with Mist and Fog 39 3.9 35 1.7 86 86 SSW 7 11 29.96 1015 3 4.82802 0 0
12:14 pm 12:14 Cloudy with Haze 40 4.4 34 1.1 79 79 WSW 8 13 29.97 1015 3 4.82802 0 0
12:24 pm 12:24 Cloudy with Haze 40 4.4 34 1.1 79 79 WSW 7 11 29.97 1015 3 4.82802 0 0
12:52 pm 12:52 Cloudy 41 5 33 0.6 73 73 W 9 15 29.93 1014 8 12.87472 0 0
1:52 pm 13:52 Cloudy 42 5.6 34 1.1 73 73 WSW 9 15 29.9 1013 9 14.48406 0 0
2:52 pm 14:52 Cloudy 41 5 34 1.1 76 76 WSW 9 15 29.88 1012 7 11.26538 0 0
3:52 pm 15:52 Cloudy 41 5 34 1.1 76 76 SW 6 9 29.88 1012 8 12.87472 0 0
4:52 pm 16:52 Cloudy with Light Rain 40 4.4 34 1.1 79 79 WSW 12 19 29.87 1012 5 8.0467 0.001 0.001
5:08 pm 17:08 Cloudy 40 4.4 34 1.1 79 79 WSW 10 17 29.89 1012 9 14.48406 0.001 0.001
7:42 pm 19:42 Cloudy 40 4.4 31 -0.6 70 70 W 14 22 29.91 1013 10 16.0934 0 0
9:32 pm 21:32 Cloudy 39 3.9 30 -1.1 70 70 W 12 19 29.92 1013 10 16.0934 0 0
9:52 pm 21:52 Cloudy 39 3.9 30 -1.1 70 70 W 12 19 29.91 1013 10 16.0934 0 0
10:52 pm 22:52 Cloudy 38 3.3 29 -1.7 70 70 W 13 20 29.9 1013 10 16.0934 0 0
11:52 pm 23:52 Cloudy 37 2.8 28 -2.2 70 70 W 16 26 29.9 1013 10 16.0934 0 0

Powered by AerisWeather